Weather History for Iron Mountain, MI

Change the Weather History Date:

Saturday, April 6, 2013

  Actual Average Record
Temperature  
Mean Temperature 34 °F -  
Max Temperature 39 °F 47 °F 77 °F (1991)
Min Temperature 28 °F 24 °F -4 °F (2003)
Degree Days  
Heating Degree Days 32    
Moisture  
Dew Point 29 °F    
Average Humidity 88    
Maximum Humidity 100    
Minimum Humidity 70    
Precipitation  
Precipitation 0.15 in - - ()
Sea Level Pressure  
Sea Level Pressure 29.84 in    
Wind  
Wind Speed 9 mph (SE)    
Max Wind Speed 16 mph    
Max Gust Speed 23 mph    
Visibility 5 miles    
Events Rain , Snow    
Averages and records for this station are not official NWS values.
T = Trace of Precipitation, MM = Missing Value Source: NWS Daily Summary

Daily Weather History Graph

Daily Weather History Graph

Search for Another Location

Airport:

Trip Planner

Search our weather history database for the weather conditions in past years. The results will help you decide how hot, cold, wet, or windy it might be!

Date:

Astronomy

Apr. 06, 2013 Rise Set
Actual Time 6:22 AM CDT 7:27 PM CDT
Civil Twilight 5:52 AM CDT 7:58 PM CDT
Nautical Twilight 5:15 AM CDT 8:34 PM CDT
Astronomical Twilight 4:37 AM CDT 9:13 PM CDT
Moon 4:17 AM CDT (4/6) 3:46 PM CDT (4/6)
Length of Visible Light 14h 06m
Length of Day
13h 05m
Waning Crescent, 15% of the Moon is Illuminated
Apr 6
Waning Crescent
Apr 10
New
Apr 18
First Quarter
Apr 25
Full
May 2
Last Quarter

Hourly Weather History & Observations

Time (CDT) Temp. Windchill Dew Point Humidity Pressure Visibility Wind Dir Wind Speed Gust Speed Precip Events Conditions
12:54 AM 30.0 °F 22.4 °F 23.0 °F 75% 30.16 in 10.0 mi SE 8.1 mph - N/A   Overcast
1:54 AM 30.0 °F 24.1 °F 23.0 °F 75% 30.15 in 10.0 mi SE 5.8 mph - N/A   Overcast
2:54 AM 30.0 °F 23.2 °F 24.1 °F 79% 30.13 in 7.0 mi SSE 6.9 mph - 0.00 in Snow Light Snow
3:54 AM 28.9 °F 20.4 °F 26.1 °F 89% 30.11 in 4.0 mi SE 9.2 mph - 0.00 in Snow Light Snow
4:38 AM 28.4 °F 21.2 °F 26.6 °F 93% 30.04 in 8.0 mi ESE 6.9 mph - 0.00 in Snow Light Snow
4:54 AM 28.9 °F 21.1 °F 26.1 °F 89% 30.08 in 6.0 mi SSE 8.1 mph - 0.00 in Snow Light Snow
5:09 AM 28.4 °F 19.7 °F 24.8 °F 86% 30.04 in 2.5 mi SSE 9.2 mph - 0.00 in Snow Light Snow
5:19 AM 28.4 °F 20.4 °F 24.8 °F 86% 30.03 in 1.2 mi SSE 8.1 mph - 0.00 in Snow Light Snow
5:54 AM 28.0 °F 19.3 °F 25.0 °F 88% 30.06 in 1.0 mi SE 9.2 mph - 0.00 in Snow Light Snow
6:22 AM 28.4 °F 21.2 °F 26.6 °F 93% 30.01 in 2.0 mi SE 6.9 mph - 0.01 in Snow Light Snow
6:32 AM 28.4 °F 19.7 °F 26.6 °F 93% 30.01 in 2.0 mi SE 9.2 mph - 0.01 in Snow Light Snow
6:41 AM 28.4 °F 19.7 °F 26.6 °F 93% 30.01 in 1.5 mi SE 9.2 mph - 0.01 in Snow Light Snow
6:51 AM 28.4 °F 19.1 °F 26.6 °F 93% 30.00 in 0.8 mi SE 10.4 mph - 0.02 in Snow Light Snow
6:54 AM 28.9 °F 20.4 °F 26.1 °F 89% 30.05 in 0.8 mi SE 9.2 mph - 0.02 in Snow Light Snow
7:09 AM 28.4 °F 20.4 °F 26.6 °F 93% 30.00 in 1.2 mi SE 8.1 mph 18.4 mph 0.00 in Snow Light Snow
7:35 AM 28.4 °F 19.1 °F 26.6 °F 93% 29.99 in 0.8 mi SE 10.4 mph - 0.00 in Snow Light Snow
7:54 AM 28.9 °F 18.6 °F 26.1 °F 89% 30.03 in 0.8 mi SE 12.7 mph 19.6 mph 0.00 in Snow Light Snow
7:59 AM 28.4 °F 19.7 °F 26.6 °F 93% 29.98 in 1.0 mi SE 9.2 mph 19.6 mph 0.00 in Snow Light Snow
8:01 AM 28.4 °F 19.1 °F 26.6 °F 93% 29.98 in 1.0 mi SE 10.4 mph 19.6 mph 0.00 in Snow Light Snow
8:35 AM 28.4 °F 18.0 °F 26.6 °F 93% 29.96 in 3.0 mi SE 12.7 mph 20.7 mph 0.00 in Snow Light Snow
8:44 AM 28.4 °F 17.5 °F 26.6 °F 93% 29.95 in 2.5 mi SE 13.8 mph 20.7 mph 0.00 in Snow Light Snow
8:52 AM 28.4 °F 18.5 °F 26.6 °F 93% 29.94 in 3.0 mi SE 11.5 mph - 0.00 in Snow Light Snow
8:54 AM 28.9 °F 18.6 °F 26.1 °F 89% 29.99 in 3.0 mi SE 12.7 mph - 0.00 in Snow Light Snow
9:01 AM 28.4 °F 17.5 °F 26.6 °F 93% 29.94 in 2.0 mi SE 13.8 mph 21.9 mph 0.00 in Snow Light Snow
9:10 AM 28.4 °F 16.6 °F 26.6 °F 93% 29.93 in 1.5 mi SE 16.1 mph 23.0 mph 0.00 in Snow Light Snow
9:41 AM 30.2 °F 21.3 °F 26.6 °F 86% 29.92 in 3.0 mi SE 10.4 mph - 0.00 in Snow Light Snow
9:54 AM 30.0 °F 20.5 °F 27.0 °F 88% 29.96 in 9.0 mi ESE 11.5 mph - 0.00 in   Overcast
10:54 AM 32.0 °F 21.2 °F 28.0 °F 85% 29.91 in 10.0 mi SE 16.1 mph 20.7 mph N/A   Overcast
11:20 AM 33.8 °F 24.8 °F 28.4 °F 81% 29.85 in 10.0 mi SE 12.7 mph - N/A   Overcast
11:54 AM 34.0 °F 25.0 °F 28.0 °F 79% 29.86 in 10.0 mi SSE 12.7 mph - N/A   Overcast
12:36 PM 35.6 °F 28.0 °F 28.4 °F 75% 29.78 in 10.0 mi SE 10.4 mph - N/A   Overcast
12:54 PM 35.1 °F 26.9 °F 28.9 °F 78% 29.81 in 10.0 mi SE 11.5 mph 21.9 mph N/A   Overcast
1:54 PM 36.0 °F 27.5 °F 30.0 °F 79% 29.76 in 10.0 mi SE 12.7 mph 18.4 mph N/A   Overcast
2:54 PM 37.0 °F 29.8 °F 30.9 °F 79% 29.72 in 10.0 mi SSE 10.4 mph - N/A   Overcast
3:51 PM 39.2 °F 31.6 °F 30.2 °F 70% 29.64 in 10.0 mi SSE 12.7 mph - N/A   Overcast
3:54 PM 39.0 °F 31.4 °F 30.9 °F 73% 29.68 in 10.0 mi SSE 12.7 mph - N/A   Overcast
4:54 PM 39.9 °F 33.4 °F 30.9 °F 70% 29.66 in 10.0 mi SSE 10.4 mph - N/A   Overcast
5:54 PM 37.9 °F 32.7 °F 32.0 °F 79% 29.64 in 6.0 mi SE 6.9 mph - 0.00 in Rain Light Rain
6:54 PM 37.0 °F 33.3 °F 34.0 °F 89% 29.60 in 7.0 mi ESE 4.6 mph - 0.01 in   Overcast
7:54 PM 36.0 °F - 34.0 °F 93% 29.58 in 5.0 mi Calm Calm - 0.01 in Rain Light Rain
8:54 PM 36.0 °F - 34.0 °F 93% 29.55 in 4.0 mi Calm Calm - 0.04 in Rain Light Rain
9:09 PM 35.6 °F 30.7 °F 33.8 °F 93% 29.51 in 4.0 mi East 5.8 mph - 0.00 in Rain Light Rain
9:22 PM 35.6 °F 31.7 °F 33.8 °F 93% 29.50 in 4.0 mi East 4.6 mph - 0.00 in Rain Light Rain
9:47 PM 35.6 °F - 35.6 °F 100% 29.49 in 3.0 mi Calm Calm - 0.03 in Rain Light Rain
9:54 PM 36.0 °F - 35.1 °F 97% 29.53 in 3.0 mi Calm Calm - 0.04 in Rain Light Rain
10:11 PM 35.6 °F 32.8 °F 33.8 °F 93% 29.48 in 2.5 mi NNW 3.5 mph - 0.00 in Rain Light Rain
10:31 PM 35.6 °F 32.8 °F 33.8 °F 93% 29.47 in 4.0 mi North 3.5 mph - 0.00 in Rain Light Rain
10:54 PM 35.1 °F 28.6 °F 34.0 °F 96% 29.51 in 4.0 mi NNW 8.1 mph - 0.01 in Rain Light Rain
11:51 PM 35.6 °F 31.7 °F 33.8 °F 93% 29.47 in 5.0 mi NNW 4.6 mph - 0.01 in Rain Light Rain
11:54 PM 35.1 °F 31.0 °F 34.0 °F 96% 29.51 in 5.0 mi NNW 4.6 mph - 0.02 in Rain Light Rain